Portada
METAR-TAF:

METAR-TAF

Aeroports :

Ambato, Equador

latitud: 01-12-43S, longitud: 078-34-28W, altitud: 2591 m

Observació

L'informe es va fer fa 29 minuts, a les 17:00 UTC
Vent 10 kt del Sud/Sud-Est
Temperatura 16°C
Humitat 68%
Pressió 1030 hPa
Visibilitat 10 km o més
Cel ennuvolat a una alçada de 1500 ft

METAR: SEAM 241700Z 15010KT 9999 BKN015 16/10 Q1030

Hora: 12:29 (17:29 UTC)


TAF: manca

Observacions i pronòstics meteorològics de més de 4000 aeroports (METAR i TAF).

Les estacions disponibles són els punts grocs i vermells al mapa.

Posi el ratolí al punt desitjat per veure el nom de l'estació.

Feu clic per veure les observacions i els pronòstics meteorològics.

Per canviar el mapa: feu clic els botons verds amb una creu de color negre per apropar; al botó verd amb un guió per allunyar la imatge; o en les fletxes verdes per a mapes adjacents.


METAR-TAF: